Regional Weather Roundup
Issued by NWS

Home | Current Version | Previous Version | Text Only | Print | Product List | Glossary Off
Versions: 1 2 3 4 5 6 7 8 9 10 11 12 13 14 15 16 17 18 19 20 21 22 23 24 25 26 27 28 29 30 31 32 33 34 35 36 37 38 39 40 41 42 43 44 45 46 47 48 49 50

746
ASUS43 KDMX 181201
RWRIA

WEATHER ROUNDUP FOR IOWA
NATIONAL WEATHER SERVICE DES MOINES IA
700 AM CDT FRI AUG 18 2017

NOTE: "FAIR" INDICATES FEW OR NO CLOUDS BELOW 12,000 FEET WITH NO
SIGNIFICANT WEATHER AND/OR OBSTRUCTIONS TO VISIBILITY.

* - THESE STATIONS ARE NOT NWS STATIONS...THUS NOT UNDER NWS
QUALITY CONTROL.  THEY ALSO DO NOT REPORT WEATHER SUCH
AS PRECIPITATION OR FOG.

IAZ001>003-012>014-020>022-031>034-043>046-181300-
   NORTHWEST IOWA

CITY           SKY/WX    TMP DP  RH WIND       PRES   REMARKS
CARROLL *      CLOUDY    61  61 100 E5        29.90F
CHEROKEE *     CLOUDY    62  62 100 N3        29.90R FOG
DENISON *      CLOUDY    63  61  94 N13G20    29.91R
LE MARS *      MOCLDY    63  61  94 CALM      29.90R
ORANGE CITY *  PTCLDY    66  61  82 NW3       29.92R
SHELDON *      CLOUDY    61  59  94 E7        29.90S
SIOUX CITY     CLOUDY    64  64 100 NW12      29.90R
6HR MIN TEMP:  62; 6HR MAX TEMP:  68; 6HR PCP: TRACE;

SPENCER        CLOUDY    62  61  96 NW6       29.93R
6HR MIN TEMP:  56; 6HR MAX TEMP:  62; 6HR PCP:  0.01;

STORM LAKE *   CLOUDY    63  59  88 VRB3      29.91R
$$

IAZ055>058-069>071-079>083-090>094-181300-
   SOUTHWEST IOWA

CITY           SKY/WX    TMP DP  RH WIND       PRES   REMARKS
ATLANTIC *     CLOUDY    63  61  94 CALM      29.88F
AUDUBON *      CLOUDY    61  57  88 CALM      29.91S
CLARINDA *       N/A     59  59 100 MISG      29.93F
COUNCIL BLFS * CLOUDY    64  64 100 S8        29.87S
CRESTON *      CLOUDY    59  59 100 SE7       29.92F
HARLAN  *      LGT RAIN  63  61  94 CALM      29.90F
LAMONI         PTCLDY    63  59  87 W5        29.96R
6HR MIN TEMP:  59; 6HR MAX TEMP:  65;

RED OAK *      CLOUDY    63  61  94 CALM      29.89F
SHENANDOAH *   PTCLDY    61  59  94 SE5       29.91F
$$

IAZ047>049-059>061-072>074-084-181300-
   CENTRAL IOWA

CITY           SKY/WX    TMP DP  RH WIND       PRES   REMARKS
AMES           CLOUDY    58  58 100 CALM      29.90S FOG
6HR MIN TEMP:  57; 6HR MAX TEMP:  61;

ANKENY *       MOCLDY    57  57 100 CALM      29.91S
BOONE *        MOCLDY    59  57  94 SE5       29.90S FOG
CHARITON *     CLEAR     61  59  94 CALM      29.93R
DES MOINES     CLOUDY    61  59  93 S7        29.90S
6HR MIN TEMP:  61; 6HR MAX TEMP:  67;

GRINNELL*      PTCLDY    59  58  97 CALM      29.92F FOG
KNOXVILLE *    PTCLDY    59  57  94 CALM      29.91S
MARSHALLTOWN   MOCLDY    58  58 100 E5        29.90F
6HR MIN TEMP:  57; 6HR MAX TEMP:  60;

NEWTON *       MOCLDY    59  57  94 SW3       29.92S FOG
PELLA *        CLOUDY    60  59  96 CALM      29.92F
PERRY *          N/A     58  58  99 CALM      29.91R FOG
$$

IAZ004>006-015-016-023>025-035-036-181300-
   NORTH CENTRAL IOWA

CITY           SKY/WX    TMP DP  RH WIND       PRES   REMARKS
ALGONA *       CLOUDY    61  61 100 CALM      29.90R
CLARION *      CLOUDY    59  59 100 CALM      29.89R
ESTHERVILLE    LGT RAIN  61  61 100 NE10      29.89R
6HR MIN TEMP:  54; 6HR MAX TEMP:  61; 6HR PCP:  0.03;

FORT DODGE *   CLOUDY    59  57  94 CALM      29.90R
MASON CITY     CLOUDY    59  57  93 NE3       29.90F
6HR MIN TEMP:  56; 6HR MAX TEMP:  61;

FOREST CITY *    N/A     59  59 100 CALM      29.89F
WEBSTER CITY * CLOUDY    59  59 100 CALM      29.88R FOG
IOWA FALLS *     N/A     58  57  96 SE6       29.91F FOG
$$

IAZ007>011-017>019-026>030-037>042-050>054-066-181300-
   NORTHEAST IOWA

CITY           SKY/WX    TMP DP  RH WIND       PRES   REMARKS
CEDAR RAPIDS   PTCLDY    59  59 100 W7        29.92R
6HR MIN TEMP:  56; 6HR MAX TEMP:  62;

CHARLES CITY * MOCLDY    59  59 100 CALM      29.90F
CLINTON *      CLEAR     60  60 100 W9        29.90R
DECORAH *      CLEAR     59  57  94 CALM      29.89R
DUBUQUE        CLEAR     61  59  93 NW8       29.89R
6HR MIN TEMP:  59; 6HR MAX TEMP:  65;

MONTICELLO *   CLEAR     61  59  94 W7        29.90R
OELWEIN *      CLEAR     59  59 100 W6        29.92R
WATERLOO       CLOUDY    59  57  93 CALM      29.90S
6HR MIN TEMP:  57; 6HR MAX TEMP:  64;

$$

IAZ064-065-067-068-078-181300-
   EAST CENTRAL IOWA

CITY           SKY/WX    TMP DP  RH WIND       PRES   REMARKS
DAVENPORT      PTCLDY    61  60  97 W7        29.91R
6HR MIN TEMP:  60; 6HR MAX TEMP:  66;

IOWA CITY      CLEAR     63  60  90 W7        29.94R
6HR MIN TEMP:  60; 6HR MAX TEMP:  66;

MUSCATINE *    CLEAR     63  61  94 W6        29.92R
QUAD CITIES    PTCLDY    64  61  90 W5        29.89R
6HR MIN TEMP:  63; 6HR MAX TEMP:  70;

$$

IAZ062-063-075>077-085>089-095>099-181300-
   SOUTHEAST IOWA

CITY           SKY/WX    TMP DP  RH WIND       PRES   REMARKS
BURLINGTON     CLEAR     62  61  96 NW5       29.91R
6HR MIN TEMP:  59; 6HR MAX TEMP:  69;

FAIRFIELD *    PTCLDY    61  59  94 NW7       29.93R
FORT MADISON * PTCLDY    63  61  94 W5        29.93R
KEOKUK *       PTCLDY    63  59  88 W7        29.92R
OSKALOOSA *      N/A     58  57  97 CALM      29.93F FOG
OTTUMWA        CLEAR     61  59  93 W3        29.93R
6HR MIN TEMP:  59; 6HR MAX TEMP:  65;

WASHINGTON *   PTCLDY    61  61 100 W6        29.94R
$$

ABBREVIATIONS USED IN REMARKS
   TC - TEMPERATURES IN CELSIUS
  WCI - WIND CHILL INDEX
   HX - HEAT INDEX
  VSB - VISIBILITY
$$





USA.gov is the U.S. government's official web portal to all federal, state and local government web resources and services.